Tiempo atmosférico en la estación meteorológica de Manacor, Illes Balears (100 m.)



Fecha
DESCASC
Temp. máxima en grados centígrados (hora)
DESCASC
Temp. mínima en grados centígrados (hora)
DESCASC
Temp. media en grados centígrados
DESCASC
Racha de viento máxima en m/sg (hora)
DESCASC
Velocidad máxima media en intervalos de 10 minutos(hora)
DESCASC
Precipitaciones diarias en mm
DESCASC
Precipitaciones de 00:00 a 06:00 en mm
DESCASC
Precipitaciones de 06:00 a 12:00 en mm
DESCASC
Precipitaciones de 12:00 a 18:00 en mm
DESCASC
Precipitaciones de 18:00 a 24:00 en mm
DESCASC
11-12-2019 16.8 (13:50) 2.6 (06:40) 9.7 8.89 (14:00) 6.11 (14:00) 0 0 0 0 0
10-12-2019 15.1 (14:20) 4.9 (23:59) 10 12.5 (11:00) 5 (11:00) 0 0 0 0 0
09-12-2019 18.1 (12:20) 9.5 (08:30) 13.8 13.61 (12:50) 7.22 (12:40) 0 0 0 0 0
08-12-2019 16.4 (14:20) 4.1 (00:00) 10.2 7.78 (17:40) 4.72 (17:00) 0 0 0 0 0
07-12-2019 17.2 (15:00) 6 (00:00) 11.6 3.33 (15:10) 1.94 (15:10) 0 0 0 0 0
06-12-2019 18 (13:40) 7.5 (00:00) 12.8 3.61 (16:00) 2.22 (16:00) 0 0 0 0 0
05-12-2019 -- (--) -- (--) -- -- (--) -- (--) -- -- -- 0 0
04-12-2019 -- (--) -- (--) -- -- (--) -- (--) -- 16 -- -- --
03-12-2019 15.5 (21:50) 10.9 (00:00) 13.2 12.78 (23:59) 6.11 (22:30) 1.6 0 0 0 1.6
02-12-2019 14.9 (15:30) 11.7 (00:00) 13.3 10 (14:10) 5.28 (13:50) -- -- -- -- 0
01-12-2019 18.6 (14:20) 12.5 (00:00) 15.6 8.89 (13:50) 5.56 (15:00) 0 0 0 0 0
30-11-2019 18.1 (13:50) 10.6 (00:00) 14.4 8.33 (14:10) 5 (12:00) 0 0 0 0 0
29-11-2019 20.4 (14:20) 11.2 (00:00) 15.8 10.28 (01:50) 6.67 (01:50) 0 0 0 0 0
28-11-2019 19.7 (13:10) 10.9 (00:00) 15.3 9.44 (15:50) 6.67 (15:50) 0 0 0 0 0
27-11-2019 20.8 (13:00) 13.1 (00:00) 16.9 15.28 (02:10) 10.28 (02:10) 0 0 0 0 0
26-11-2019 18.7 (14:40) 7.9 (00:00) 13.3 11.39 (23:30) 7.22 (22:50) 0 0 0 0 0
25-11-2019 19.4 (14:20) 7 (00:00) 13.2 8.06 (12:10) 5.83 (13:20) 0 0 0 0 0
24-11-2019 16.1 (14:00) 9.4 (00:00) 12.8 10 (10:40) 5.56 (10:40) 0.2 0 0 0 0.2
23-11-2019 16.2 (03:20) 9.8 (00:00) 13 16.11 (02:40) 8.89 (03:40) 8.2 3.4 0 4.8 0
22-11-2019 16.3 (12:50) 10.8 (00:00) 13.5 15.28 (23:20) 7.22 (23:20) 20.6 3.2 6.2 1.4 9.8
21-11-2019 16.1 (14:20) 8 (00:00) 12.1 10.83 (13:40) 6.67 (13:40) 0.6 0.6 0 0 0
20-11-2019 14.1 (14:00) 2.6 (00:00) 8.4 5.28 (19:20) 2.5 (19:20) 0 0 0 0 0
19-11-2019 14.5 (13:00) 3.8 (00:00) 9.1 7.22 (13:20) 4.44 (13:20) 0 0 0 0 0
18-11-2019 13.7 (00:00) 10.3 (00:00) 12 10.28 (14:10) 5 (14:20) 0 0 0 0 0
17-11-2019 14.8 (11:40) 7.1 (00:00) 11 11.67 (13:00) 7.5 (14:50) 0 0 0 0 0
16-11-2019 12 (13:50) 5.2 (00:00) 8.6 7.78 (14:20) 4.17 (14:20) 0.2 0 0 0.2 0
15-11-2019 14.7 (14:10) 5.2 (00:00) 9.9 10 (07:00) 6.39 (08:00) 0 0 0 0 0

Gráficas

Temp. máximas Temp. mínimas Temp. medias Precipitaciones Rachas de viento máximas Velocidades máximas media en intervalos de 10 minutos

Datos horarios

Fecha y hora oficial Temperatura (ºC) Velocidad del viento (km/h) Dirección del viento Racha (km/h) Dirección de racha Precipitación (mm) Presión (hPa) Tendencia (hPa) Humedad (%)
2019-12-14 23:00:00 12.8 15 Sudoeste 28 Sudoeste 0 -- -- 87
2019-12-14 22:00:00 13.2 18 Sudoeste 30 Sudoeste 0 -- -- 87
2019-12-14 21:00:00 13.2 16 Sudoeste 33 Sudoeste 0 -- -- 89
2019-12-14 20:00:00 13.7 23 Sudoeste 31 Sudoeste 0 -- -- 88
2019-12-14 19:00:00 13.7 17 Sudoeste 24 Sudoeste 0 -- -- 87
2019-12-14 18:00:00 14.1 15 Sudoeste 24 Sudoeste 0 -- -- 84
2019-12-14 17:00:00 15.2 15 Sudoeste 25 Sur 0 -- -- 80
2019-12-14 16:00:00 16.5 17 Sudoeste 29 Sudoeste 0 -- -- 75
2019-12-14 15:00:00 18 19 Sudoeste 29 Sudoeste 0 -- -- 67
2019-12-14 14:00:00 19.4 18 Sur 26 Sur 0 -- -- 65
2019-12-14 13:00:00 20.2 15 Sudoeste 24 Oeste 0 -- -- 53
2019-12-14 12:00:00 19.3 11 Oeste 25 Oeste 0 -- -- 55
2019-12-14 11:00:00 17.7 15 Sudoeste 31 Sudoeste 0 -- -- 64
2019-12-14 10:00:00 15.8 20 Sudoeste 32 Sudoeste 0 -- -- 69
2019-12-14 09:00:00 14.2 17 Sudoeste 27 Sudoeste 0 -- -- 75
2019-12-14 08:00:00 14.2 17 Sudoeste 30 Sudoeste 0 -- -- 72
2019-12-14 07:00:00 14.4 18 Sudoeste 30 Sudoeste 0 -- -- 75
2019-12-14 06:00:00 14.7 20 Sudoeste 28 Sudoeste 0 -- -- 71
2019-12-14 05:00:00 14.6 10 Sudoeste 28 Oeste 0 -- -- 72
2019-12-14 04:00:00 15.8 18 Oeste 28 Oeste 0 -- -- 68
2019-12-14 03:00:00 16.4 17 Oeste 38 Oeste 0 -- -- 66
2019-12-14 02:00:00 16.8 20 Sudoeste 36 Sudoeste 0 -- -- 64
2019-12-14 01:00:00 16.5 17 Sudoeste 41 Sudoeste 0 -- -- 65
2019-12-14 00:00:00 16.8 20 Sudoeste 37 Oeste 0 -- -- 65
2019-12-13 23:00:00 16.7 21 Oeste 45 Oeste 0 -- -- 67
2019-12-13 22:00:00 18.9 26 Oeste 46 Oeste 0 -- -- 55
2019-12-13 21:00:00 18.6 24 Sudoeste 52 Sur 0 -- -- 57
2019-12-13 20:00:00 18.6 24 Sudoeste 44 Sur 0 -- -- 55
2019-12-13 19:00:00 18.7 22 Sudoeste 59 Sudoeste 0 -- -- 54
2019-12-13 18:00:00 18.7 24 Sudoeste 49 Sur 0 -- -- 55
2019-12-13 17:00:00 18.3 27 Sudoeste 49 Sudoeste 0 -- -- 57
2019-12-13 16:00:00 18.6 30 Sudoeste 61 Sudoeste 0 -- -- 58
2019-12-13 15:00:00 18.1 38 Sudoeste 61 Sudoeste 0 -- -- 59
2019-12-13 14:00:00 18 38 Sudoeste 55 Sudoeste 0 -- -- 64
2019-12-13 13:00:00 17.6 28 Sudoeste 48 Sudoeste 0 -- -- 70
2019-12-13 12:00:00 17.2 33 Sudoeste 49 Sudoeste 0 -- -- 72
2019-12-13 11:00:00 17.1 32 Sudoeste 53 Sudoeste 0 -- -- 74
2019-12-13 10:00:00 16.2 30 Sudoeste 48 Sudoeste 0 -- -- 76
2019-12-13 09:00:00 15.5 33 Sudoeste 53 Sudoeste 0 -- -- 78
2019-12-13 08:00:00 14.9 36 Sudoeste 59 Sudoeste 0 -- -- 79
2019-12-13 07:00:00 14.9 36 Sudoeste 58 Sudoeste 0 -- -- 78
2019-12-13 06:00:00 14.3 28 Sudoeste 45 Sudoeste 0 -- -- 79
2019-12-13 05:00:00 14.1 24 Sudoeste 48 Sudoeste 0 -- -- 78
2019-12-13 04:00:00 14.3 32 Sudoeste 50 Sudoeste 0 -- -- 76
2019-12-13 03:00:00 14.3 29 Sudoeste 54 Sudoeste 0 -- -- 75
2019-12-13 02:00:00 14 30 Oeste 51 Oeste 0 -- -- 74
2019-12-13 01:00:00 13.2 27 Sudoeste 45 Oeste 0 -- -- 75
2019-12-13 00:00:00 12.6 24 Sudoeste 36 Sudoeste 0 -- -- 75
2019-12-12 23:00:00 12.7 20 Sudoeste 32 Sudoeste 0 -- -- 73
2019-12-12 22:00:00 12.4 15 Sudoeste 25 Sudoeste 0 -- -- 75
2019-12-12 21:00:00 12.2 16 Sudoeste 27 Sudoeste 0 -- -- 77
2019-12-12 20:00:00 11.8 19 Sudoeste 28 Sudoeste 0 -- -- 78
2019-12-12 19:00:00 11.2 11 Sudoeste 31 Sudoeste 0 -- -- 82
2019-12-12 18:00:00 11.6 14 Sudoeste 24 Sudoeste 0 -- -- 79
2019-12-12 17:00:00 12.5 17 Sudoeste 29 Sudoeste 0 -- -- 75
2019-12-12 16:00:00 13.5 17 Sudoeste 25 Sudoeste 0 -- -- 70
2019-12-12 15:00:00 14.5 15 Sudoeste 33 Oeste 0 -- -- 64
2019-12-12 14:00:00 15.1 22 Sudoeste 37 Oeste 0 -- -- 58
2019-12-12 13:00:00 15.3 19 Oeste 36 Oeste 0 -- -- 53
2019-12-12 12:00:00 14.9 21 Oeste 35 Oeste 0 -- -- 55
2019-12-12 11:00:00 13.4 17 Sudoeste 27 Sudoeste 0 -- -- 61
2019-12-12 10:00:00 12.2 15 Sudoeste 23 Sudoeste 0 -- -- 63
2019-12-12 09:00:00 11 14 Sudoeste 26 Oeste 0 -- -- 67
2019-12-12 08:00:00 10.8 16 Oeste 24 Oeste 0 -- -- 66
2019-12-12 07:00:00 10.5 13 Oeste 29 Oeste 0 -- -- 66
2019-12-12 06:00:00 10.4 13 Sudoeste 27 Sudoeste 0 -- -- 66
2019-12-12 05:00:00 11.5 19 Oeste 35 Sudoeste 0 -- -- 62
2019-12-12 04:00:00 10.7 17 Sudoeste 28 Sudoeste 0 -- -- 61
2019-12-12 03:00:00 9.1 7 Oeste 18 Sudoeste 0 -- -- 74
2019-12-12 02:00:00 10 11 Sudoeste 18 Sudoeste 0 -- -- 80
2019-12-12 01:00:00 10.7 8 Sudoeste 14 Sudoeste 0 -- -- 83
2019-12-12 00:00:00 10.6 8 Sudoeste 15 Sur 0 -- -- 84
2019-12-11 23:00:00 11.1 0 Calma 14 Norte 0 -- -- 80
2019-12-11 22:00:00 11.5 6 Nordeste 21 Noroeste 0 -- -- 81
2019-12-11 21:00:00 11.9 7 Norte 27 Noroeste 0 -- -- 79
2019-12-11 20:00:00 12 15 Noroeste 30 Noroeste 0 -- -- 78
2019-12-11 19:00:00 13.6 13 Noroeste 22 Oeste 0 -- -- 65
2019-12-11 18:00:00 13.1 5 Oeste 13 Sudoeste 0 -- -- 76
2019-12-11 17:00:00 14.3 12 Sudoeste 31 Sudoeste 0 -- -- 72
2019-12-11 16:00:00 15.3 17 Sudoeste 27 Sudoeste 0 -- -- 65
2019-12-11 15:00:00 15.8 15 Sudoeste 31 Sudoeste 0 -- -- 71
2019-12-11 14:00:00 16.5 22 Sudoeste 32 Sudoeste 0 -- -- 71
2019-12-11 13:00:00 16.1 16 Sudoeste 26 Sudoeste 0 -- -- 77
2019-12-11 12:00:00 14.4 17 Sudoeste 30 Sudoeste 0 -- -- 84
2019-12-11 11:00:00 13.6 19 Sudoeste 31 Sudoeste 0 -- -- 83
2019-12-11 10:00:00 10.7 10 Oeste 22 Sudoeste 0 -- -- 92
2019-12-11 09:00:00 4.4 4 Noroeste 6 Oeste 0 -- -- 98
2019-12-11 08:00:00 3.3 0 Calma 4 Oeste 0 -- -- 97
2019-12-11 07:00:00 2.7 0 Calma 3 Nordeste 0 -- -- 96
2019-12-11 06:00:00 3.1 0 Calma 3 Nordeste 0 -- -- 96
2019-12-11 05:00:00 3.6 0 Calma 3 Sudoeste 0 -- -- 95
2019-12-11 04:00:00 3.2 0 Calma 4 Sudoeste 0 -- -- 95
2019-12-11 03:00:00 3.9 0 Calma 4 Este 0 -- -- 95
2019-12-11 02:00:00 3.8 0 Calma 2 Sudoeste 0 -- -- 94
2019-12-11 01:00:00 4 0 Calma 3 Este 0 -- -- 93
2019-12-11 00:00:00 4.9 0 Calma 4 Sudoeste 0 -- -- 91
2019-12-10 23:00:00 5.5 0 Calma 2 Sudoeste 0 -- -- 89
2019-12-10 22:00:00 7.2 0 Calma 12 Sudoeste 0 -- -- 86
2019-12-10 21:00:00 8.7 8 Sudoeste 14 Sudoeste 0 -- -- 83
2019-12-10 20:00:00 9.5 7 Sudoeste 12 Sudoeste 0 -- -- 83
2019-12-10 19:00:00 9.4 7 Sudoeste 14 Sudoeste 0 -- -- 85
2019-12-10 18:00:00 9.5 3 Sudoeste 8 Sudoeste 0 -- -- 71
2019-12-10 17:00:00 13.1 2 Sudoeste 11 Noroeste 0 -- -- 56
2019-12-10 16:00:00 14.2 5 Norte 21 Nordeste 0 -- -- 46
2019-12-10 15:00:00 14.6 11 Norte 23 Norte 0 -- -- 43
2019-12-10 14:00:00 14.7 9 Norte 31 Noroeste 0 -- -- 47
2019-12-10 13:00:00 14.4 14 Norte 33 Norte 0 -- -- 47
2019-12-10 12:00:00 13.9 13 Norte 37 Noroeste 0 -- -- 51
2019-12-10 11:00:00 13.3 18 Norte 45 Norte 0 -- -- 48
2019-12-10 10:00:00 12.5 9 Norte 27 Nordeste 0 -- -- 62
2019-12-10 09:00:00 10.6 8 Norte 17 Norte 0 -- -- 78
2019-12-10 08:00:00 9.4 3 Noroeste 12 Sudoeste 0 -- -- 80
2019-12-10 07:00:00 9 7 Sudoeste 13 Sudoeste 0 -- -- 81
2019-12-10 06:00:00 9.6 4 Sudoeste 10 Sudoeste 0 -- -- 79
2019-12-10 05:00:00 10.3 3 Oeste 24 Oeste 0 -- -- 76
2019-12-10 04:00:00 10.2 8 Oeste 13 Oeste 0 -- -- 77
2019-12-10 03:00:00 10.9 10 Sudoeste 22 Oeste 0 -- -- 73
2019-12-10 02:00:00 11.1 9 Oeste 15 Oeste 0 -- -- 72
2019-12-10 01:00:00 11 5 Sudoeste 27 Oeste 0 -- -- 70
2019-12-10 00:00:00 10.3 5 Sudoeste 19 Noroeste 0 -- -- 73
2019-12-09 23:00:00 12.5 13 Noroeste 28 Noroeste 0 -- -- 64
2019-12-09 22:00:00 12.7 11 Noroeste 37 Oeste 0 -- -- 65
2019-12-09 21:00:00 13.6 18 Noroeste 32 Noroeste 0 -- -- 62
2019-12-09 20:00:00 12.5 6 Sudoeste 21 Noroeste 0 -- -- 64
2019-12-09 19:00:00 13.4 10 Oeste 28 Noroeste 0 -- -- 60
2019-12-09 18:00:00 14 16 Noroeste 35 Oeste 0 -- -- 57
2019-12-09 17:00:00 14.8 15 Noroeste 29 Oeste 0 -- -- 55
2019-12-09 16:00:00 15.8 14 Noroeste 47 Oeste 0 -- -- 53
2019-12-09 15:00:00 16.4 18 Oeste 38 Oeste 0 -- -- 51
2019-12-09 14:00:00 16.2 23 Oeste 41 Oeste 0 -- -- 48
2019-12-09 13:00:00 17.2 17 Oeste 49 Sudoeste 0 -- -- 42
2019-12-09 12:00:00 17.9 21 Oeste 40 Oeste 0 -- -- 38
2019-12-09 11:00:00 15.6 8 Sudoeste 21 Noroeste 0 -- -- 57
2019-12-09 10:00:00 12.8 8 Noroeste 15 Sudoeste 0 -- -- 83
2019-12-09 09:00:00 11 7 Sudoeste 14 Oeste 0 -- -- 88
2019-12-09 08:00:00 9.9 4 Sudoeste 11 Sur 0 -- -- 90
2019-12-09 07:00:00 11.2 8 Sudoeste 20 Sudoeste 0 -- -- 88
2019-12-09 06:00:00 10.9 10 Sudoeste 17 Sudoeste 0 -- -- 93
2019-12-09 05:00:00 12.3 9 Sudoeste 16 Sudoeste 0 -- -- 90
2019-12-09 04:00:00 11.7 0 Calma 4 Sudoeste 0 -- -- 95
2019-12-09 03:00:00 11.7 0 Calma 7 Noroeste 0 -- -- 94
2019-12-09 02:00:00 12 6 Oeste 23 Sudoeste 0 -- -- 93
2019-12-09 01:00:00 13.1 15 Sudoeste 29 Sudoeste 0 -- -- 90
2019-12-09 00:00:00 12.7 16 Sudoeste 24 Sudoeste 0 -- -- 91
2019-12-08 23:00:00 12.4 14 Sudoeste 25 Sudoeste 0 -- -- 91
2019-12-08 22:00:00 12.2 12 Sudoeste 22 Sudoeste 0 -- -- 91
2019-12-08 21:00:00 12 9 Sudoeste 16 Sudoeste 0 -- -- 90
2019-12-08 20:00:00 11.8 10 Sudoeste 19 Sudoeste 0 -- -- 91
2019-12-08 19:00:00 12.5 15 Sudoeste 24 Sudoeste 0 -- -- 89
2019-12-08 18:00:00 13.1 17 Sudoeste 28 Sudoeste 0 -- -- 86
2019-12-08 17:00:00 14.3 17 Sudoeste 25 Sudoeste 0 -- -- 80
2019-12-08 16:00:00 15.7 17 Sudoeste 26 Sudoeste 0 -- -- 75
2019-12-08 15:00:00 16.4 16 Sudoeste 25 Sudoeste 0 -- -- 75
2019-12-08 14:00:00 16.3 10 Sudoeste 17 Sudoeste 0 -- -- 79
2019-12-08 13:00:00 15.9 8 Sudoeste 15 Sudoeste 0 -- -- 77
2019-12-08 12:00:00 13.8 8 Sudoeste 14 Sudoeste 0 -- -- 98
2019-12-08 11:00:00 11.3 2 Noroeste 3 Noroeste 0 -- -- 100
2019-12-08 10:00:00 9.6 0 Calma 3 Oeste 0 -- -- 99
2019-12-08 09:00:00 8.1 0 Calma 3 Sudoeste 0 -- -- 99
2019-12-08 08:00:00 6.2 0 Calma 4 Nordeste 0 -- -- 99
2019-12-08 07:00:00 5 2 Sudoeste 4 Sur 0 -- -- 98
2019-12-08 06:00:00 4.2 0 Calma 2 Norte 0 -- -- 98
2019-12-08 05:00:00 4.9 2 Sur 4 Sur 0 -- -- 98
2019-12-08 04:00:00 5.1 0 Calma 0 Calma 0 -- -- 97
2019-12-08 03:00:00 5.8 0 Calma 2 Este 0 -- -- 97
2019-12-08 02:00:00 6.5 0 Calma 4 Norte 0 -- -- 97
2019-12-08 01:00:00 7.1 0 Calma 4 Sur 0 -- -- 97
2019-12-08 00:00:00 7.3 0 Calma 2 Sur 0 -- -- 97
2019-12-07 23:00:00 7.6 2 Sur 3 Sur 0 -- -- 96
2019-12-07 22:00:00 8 0 Calma 3 Sur 0 -- -- 95
2019-12-07 21:00:00 8.7 0 Calma 2 Nordeste 0 -- -- 95
2019-12-07 20:00:00 9.4 0 Calma 0 Calma 0 -- -- 93
2019-12-07 19:00:00 10.6 0 Calma 2 Este 0 -- -- 92
2019-12-07 18:00:00 12.1 0 Calma 7 Sudeste 0 -- -- 89
2019-12-07 17:00:00 13.6 3 Este 9 Este 0 -- -- 85
2019-12-07 16:00:00 15.6 6 Este 12 Este 0 -- -- 79
2019-12-07 15:00:00 17.2 5 Este 12 Este 0 -- -- 74
2019-12-07 14:00:00 16.8 4 Oeste 10 Noroeste 0 -- -- 73
2019-12-07 13:00:00 15 2 Norte 6 Norte 0 -- -- 86
2019-12-07 12:00:00 13.2 0 Calma 3 Oeste 0 -- -- 97
2019-12-07 11:00:00 10.8 0 Calma 4 Sur 0 -- -- 99
2019-12-07 10:00:00 7.8 0 Calma 6 Sur 0 -- -- 99
2019-12-07 09:00:00 6.2 0 Calma 4 Norte 0 -- -- 98
2019-12-07 08:00:00 6.4 2 Nordeste 4 Norte 0 -- -- 98
2019-12-07 07:00:00 6.2 0 Calma 0 Calma 0 -- -- 98
2019-12-07 06:00:00 6.4 0 Calma 5 Sur 0 -- -- 98
2019-12-07 05:00:00 6.5 0 Calma 6 Sur 0 -- -- 97
2019-12-07 04:00:00 6.6 0 Calma 4 Sur 0 -- -- 98
2019-12-07 03:00:00 6.7 0 Calma 2 Nordeste 0 -- -- 97
2019-12-07 02:00:00 7.2 0 Calma 3 Norte 0 -- -- 97
2019-12-07 01:00:00 7.7 2 Sudeste 3 Sudeste 0 -- -- 97
2019-12-07 00:00:00 7.9 0 Calma 3 Sur 0 -- -- 96
2019-12-06 23:00:00 8.3 0 Calma 3 Noroeste 0 -- -- 95
2019-12-06 22:00:00 9.3 0 Calma 3 Sur 0 -- -- 95
2019-12-06 21:00:00 10 0 Calma 4 Sur 0 -- -- 94
2019-12-06 20:00:00 10.1 0 Calma 2 Este 0 -- -- 93
2019-12-06 19:00:00 11.2 0 Calma 2 Este 0 -- -- 90
2019-12-06 18:00:00 13.3 0 Calma 4 Este 0 -- -- 86
2019-12-06 17:00:00 15.5 0 Calma 10 Sudeste 0 -- -- 82
2019-12-06 16:00:00 16.5 8 Sudeste 13 Sudeste 0 -- -- 79
2019-12-06 15:00:00 16.6 4 Nordeste 12 Noroeste 0 -- -- 80
2019-12-06 14:00:00 17.3 4 Noroeste 8 Noroeste 0 -- -- 74
2019-12-06 13:00:00 16.9 4 Noroeste 8 Noroeste 0 -- -- 77
2019-12-06 12:00:00 16.2 3 Norte 7 Este 0 -- -- 82
2019-12-06 11:00:00 13.8 2 Noroeste 6 Noroeste 0 -- -- 94
2019-12-06 10:00:00 11.8 0 Calma 4 Sudoeste 0 -- -- 98
2019-12-06 09:00:00 9.6 0 Calma 3 Sur 0 -- -- 99
2019-12-06 08:00:00 8.6 0 Calma 5 Noroeste 0 -- -- 98
2019-12-06 07:00:00 8.3 2 Sudeste 5 Norte 0 -- -- 99
2019-12-06 06:00:00 7.9 0 Calma 4 Sudeste 0 -- -- 98
2019-12-06 05:00:00 7.9 0 Calma 3 Noroeste 0 -- -- 98
2019-12-06 04:00:00 7.7 0 Calma 2 Sur 0 -- -- 97
2019-12-06 03:00:00 7.6 0 Calma 3 Sur 0 -- -- 98
2019-12-06 02:00:00 7.7 0 Calma 3 Sudoeste 0 -- -- 97
2019-12-06 01:00:00 7.9 3 Sur 4 Sur 0 -- -- 97
2019-12-06 00:00:00 8.3 0 Calma 6 Sudoeste 0 -- -- 96
2019-12-05 23:00:00 8.7 2 Sudoeste 5 Sudoeste 0 -- -- 96
2019-12-05 22:00:00 9.7 2 Sudoeste 5 Sur 0 -- -- 95
2019-12-05 21:00:00 10.5 2 Sur 11 Sudoeste 0 -- -- 93
2019-12-05 20:00:00 11.5 4 Sur 7 Sudoeste 0 -- -- 93
2019-12-05 19:00:00 12.7 6 Sudoeste 17 Sudoeste 0 -- -- 89
2019-12-05 18:00:00 13.6 11 Sudoeste 16 Sudoeste 0 -- -- 87
2019-12-05 17:00:00 15.4 4 Sudoeste 13 Sur 0 -- -- 79
2019-12-05 16:00:00 16.5 6 Sudoeste 17 Sudoeste 0 -- -- 75
2019-12-05 15:00:00 16.8 11 Sudoeste 20 Sudoeste 0 -- -- 71
2019-12-05 14:00:00 16.5 10 Sudoeste 18 Sudoeste 0 -- -- 75
2019-12-05 13:00:00 16.5 8 Sudoeste 13 Sudoeste 0 -- -- 79
2019-12-05 12:00:00 15.1 8 Sudoeste 13 Oeste 0 -- -- 84
2019-12-05 11:00:00 13.5 6 Sudoeste 12 Sur 0 -- -- 97
2019-12-05 10:00:00 10.7 0 Calma 5 Sudoeste 0 -- -- 100
2019-12-05 09:00:00 7.2 0 Calma 4 Oeste 0 -- -- 99
2019-12-05 08:00:00 -- -- -- -- -- -- -- -- --
2019-12-05 07:00:00 -- -- -- -- -- -- -- -- --
2019-12-05 06:00:00 -- -- -- -- -- -- -- -- --
2019-12-05 05:00:00 -- -- -- -- -- -- -- -- --
2019-12-05 04:00:00 -- -- -- -- -- -- -- -- --
2019-12-05 03:00:00 -- -- -- -- -- -- -- -- --
2019-12-05 02:00:00 -- -- -- -- -- -- -- -- --
2019-12-05 01:00:00 -- -- -- -- -- -- -- -- --
2019-12-05 00:00:00 -- -- -- -- -- -- -- -- --
2019-12-04 23:00:00 -- -- -- -- -- -- -- -- --
2019-12-04 22:00:00 -- -- -- -- -- -- -- -- --
2019-12-04 21:00:00 -- -- -- -- -- -- -- -- --
2019-12-04 20:00:00 -- -- -- -- -- -- -- -- --
2019-12-04 19:00:00 -- -- -- -- -- -- -- -- --
2019-12-04 18:00:00 -- -- -- -- -- -- -- -- --
2019-12-04 17:00:00 -- -- -- -- -- -- -- -- --
2019-12-04 16:00:00 -- -- -- -- -- -- -- -- --
2019-12-04 15:00:00 -- -- -- -- -- -- -- -- --
2019-12-04 14:00:00 -- -- -- -- -- -- -- -- --
2019-12-04 13:00:00 -- -- -- -- -- -- -- -- --
2019-12-04 12:00:00 -- -- -- -- -- -- -- -- --
2019-12-04 11:00:00 -- -- -- -- -- -- -- -- --
2019-12-04 10:00:00 15.1 12 Este 32 Este 0 -- -- 85
2019-12-04 09:00:00 14.9 14 Este 33 Este 0 -- -- 89
2019-12-04 08:00:00 15 13 Este 34 Este 2.2 -- -- 96
2019-12-04 07:00:00 12.4 15 Sur 42 Este 16.8 -- -- 89
2019-12-04 06:00:00 15 19 Este 50 Este 0 -- -- 88
2019-12-04 05:00:00 15.4 25 Este 55 Este 6.8 -- -- 95
2019-12-04 04:00:00 15.5 20 Este 45 Nordeste 0 -- -- 93
2019-12-04 03:00:00 15.2 21 Este 60 Este 1.4 -- -- 93
2019-12-04 02:00:00 15.1 23 Este 46 Este 3.4 -- -- 94
2019-12-04 01:00:00 15.2 15 Este 52 Nordeste 4.4 -- -- 95
2019-12-04 00:00:00 15.3 22 Nordeste 46 Nordeste 1 -- -- 93
2019-12-03 23:00:00 15 19 Nordeste 41 Nordeste 0.6 -- -- 93
2019-12-03 22:00:00 15.5 17 Nordeste 40 Nordeste 0 -- -- 88
2019-12-03 21:00:00 15.2 17 Nordeste 33 Nordeste 0 -- -- 85
2019-12-03 20:00:00 14.9 17 Nordeste 38 Nordeste 0 -- -- 85
2019-12-03 19:00:00 14.1 15 Nordeste 30 Nordeste 0 -- -- 85
2019-12-03 18:00:00 13.7 15 Nordeste 30 Este 0 -- -- 82
2019-12-03 17:00:00 13.7 14 Nordeste 30 Nordeste 0 -- -- 81
2019-12-03 16:00:00 13.7 13 Nordeste 31 Este 0 -- -- 80
2019-12-03 15:00:00 14.2 15 Nordeste 30 Nordeste 0 -- -- 75
2019-12-03 14:00:00 14.4 13 Nordeste 30 Nordeste 0 -- -- 75
2019-12-03 13:00:00 14 16 Nordeste 38 Nordeste 0 -- -- 75
2019-12-03 12:00:00 13.5 19 Nordeste 37 Nordeste 0 -- -- 75
2019-12-03 11:00:00 12.4 16 Nordeste -- -- -- -- -- 78
2019-12-03 10:00:00 -- 14 Nordeste 30 Nordeste 0 -- -- --
2019-12-03 09:00:00 11.5 13 Nordeste 29 Nordeste 0 -- -- 78
2019-12-03 08:00:00 11.1 12 Nordeste 27 Nordeste 0 -- -- 78
2019-12-03 07:00:00 11.1 12 Nordeste 30 Nordeste 0 -- -- 79
2019-12-03 06:00:00 11.2 12 Nordeste 32 Nordeste 0 -- -- 77
2019-12-03 05:00:00 11.1 14 Nordeste 27 Nordeste 0 -- -- 80
2019-12-03 04:00:00 11.5 13 Nordeste 27 Nordeste 0 -- -- 81
2019-12-03 03:00:00 11.8 13 Nordeste 28 Nordeste 0 -- -- 78
2019-12-03 02:00:00 11.9 15 Nordeste 26 Nordeste 0 -- -- 81
2019-12-03 01:00:00 12.3 13 Nordeste 26 Nordeste 0 -- -- 80
2019-12-03 00:00:00 12.2 12 Nordeste 24 Nordeste 0 -- -- 79
2019-12-02 23:00:00 12.3 11 Nordeste 24 Nordeste 0 -- -- 80
2019-12-02 22:00:00 12.2 12 Nordeste 22 Nordeste 0 -- -- 79
2019-12-02 21:00:00 11.8 13 Nordeste 24 Nordeste 0 -- -- 81
2019-12-02 20:00:00 11.7 9 Nordeste 22 Nordeste 0 -- -- 83
2019-12-02 19:00:00 12 12 Nordeste 24 Nordeste 0 -- -- 80
2019-12-02 18:00:00 12.4 13 Nordeste 26 Nordeste 0 -- -- 80
2019-12-02 17:00:00 13 14 Nordeste 29 Nordeste 0 -- -- 80
2019-12-02 16:00:00 13.6 13 Nordeste 30 Nordeste 0 -- -- 78
2019-12-02 15:00:00 14.1 14 Nordeste 36 Nordeste 0 -- -- 80
2019-12-02 14:00:00 14.1 16 Nordeste 31 Norte 0 -- -- 80
2019-12-02 13:00:00 14.3 15 Nordeste 30 Norte 0 -- -- 85
2019-12-02 12:00:00 13.5 10 Nordeste 21 Nordeste 0 -- -- 91
2019-12-02 11:00:00 13.2 12 Nordeste 23 Este 0 -- -- 90
2019-12-02 10:00:00 13.1 9 Nordeste 24 Nordeste 0 -- -- 91
2019-12-02 09:00:00 13 9 Nordeste 19 Este 0 -- -- 94
2019-12-02 08:00:00 12.3 6 Nordeste 19 Nordeste 0 -- -- 94
2019-12-02 07:00:00 12.5 3 Nordeste 12 Nordeste 0 -- -- 95
2019-12-02 06:00:00 13.2 6 Noroeste 15 Noroeste 0 -- -- 96
2019-12-02 05:00:00 13.4 3 Este 13 Este 0 -- -- 96
2019-12-02 04:00:00 13 2 Este 8 Este 0 -- -- 96
2019-12-02 03:00:00 13.1 2 Sudeste 6 Este 0 -- -- 96
2019-12-02 02:00:00 13.1 3 Nordeste 6 Nordeste 0 -- -- 95
2019-12-02 01:00:00 13.2 0 Calma 9 Este 0 -- -- 95
2019-12-02 00:00:00 13 0 Calma 4 Este 0 -- -- 95
2019-12-01 23:00:00 12.6 3 Este 4 Sudeste 0 -- -- 95
2019-12-01 22:00:00 12.9 2 Este 7 Este 0 -- -- 94
2019-12-01 21:00:00 13 0 Calma 3 Nordeste 0 -- -- 92
2019-12-01 20:00:00 14.5 2 Sudoeste 10 Oeste 0 -- -- 91
2019-12-01 19:00:00 14.9 7 Sudoeste 16 Sudoeste 0 -- -- 91
2019-12-01 18:00:00 14.9 10 Sudoeste 18 Sudoeste 0 -- -- 89
2019-12-01 17:00:00 16.2 11 Sudoeste 25 Sur 0 -- -- 84
2019-12-01 16:00:00 17.7 17 Sudoeste 27 Sudoeste 0 -- -- 76
2019-12-01 15:00:00 18 20 Sudoeste 31 Sudoeste 0 -- -- 76
2019-12-01 14:00:00 17.7 14 Sudoeste 32 Sudoeste 0 -- -- 75
2019-12-01 13:00:00 17.3 16 Sudoeste 26 Sudoeste 0 -- -- 76
2019-12-01 12:00:00 17.3 15 Sudoeste 24 Sudoeste 0 -- -- 77
2019-12-01 11:00:00 16.6 12 Sudoeste 22 Sudoeste 0 -- -- 85
2019-12-01 10:00:00 15.5 11 Sudoeste 18 Sudoeste 0 -- -- 90
2019-12-01 09:00:00 14.9 10 Sudoeste 17 Sudoeste 0 -- -- 90
2019-12-01 08:00:00 14.6 9 Sudoeste 16 Sudoeste 0 -- -- 90
2019-12-01 07:00:00 14.7 10 Sudoeste 19 Sudoeste 0 -- -- 89
2019-12-01 06:00:00 14.5 8 Sur 12 Sur 0 -- -- 90
2019-12-01 05:00:00 14.8 9 Sudoeste 16 Sudoeste 0 -- -- 91
2019-12-01 04:00:00 14.8 10 Sudoeste 20 Sudoeste 0 -- -- 92
2019-12-01 03:00:00 14.8 10 Sudoeste 24 Sudoeste 0 -- -- 91
2019-12-01 02:00:00 14.8 14 Sudoeste 27 Sur 0 -- -- 91
2019-12-01 01:00:00 14.6 9 Sur 19 Sur 0 -- -- 91
2019-12-01 00:00:00 14.8 8 Sur 21 Sur 0 -- -- 91
2019-11-30 23:00:00 15 9 Sur 19 Sudoeste 0 -- -- 93
2019-11-30 22:00:00 14.9 10 Sudoeste 21 Sudoeste 0 -- -- 93
2019-11-30 21:00:00 15.1 14 Sudoeste 23 Sudoeste 0 -- -- 91
2019-11-30 20:00:00 15.2 10 Sudoeste 22 Sudoeste 0 -- -- 88
2019-11-30 19:00:00 15.3 8 Sur 17 Sudoeste 0 -- -- 88
2019-11-30 18:00:00 15.4 4 Sur 19 Sudoeste 0 -- -- 89
2019-11-30 17:00:00 16.2 14 Sudoeste 24 Sudoeste 0 -- -- 84
2019-11-30 16:00:00 17.1 17 Sudoeste 26 Sudoeste 0 -- -- 80
2019-11-30 15:00:00 18.1 16 Sudoeste 30 Sudoeste 0 -- -- 75
2019-11-30 14:00:00 18 18 Sudoeste 28 Sudoeste 0 -- -- 78
2019-11-30 13:00:00 17.2 15 Sudoeste 25 Sudoeste 0 -- -- 79
2019-11-30 12:00:00 17 18 Sudoeste 26 Sudoeste 0 -- -- 81
2019-11-30 11:00:00 15.8 10 Sudoeste 17 Sudoeste 0 -- -- 92
2019-11-30 10:00:00 13.8 2 Noroeste 4 Noroeste 0 -- -- 98
2019-11-30 09:00:00 12.1 3 Nordeste 5 Norte 0 -- -- 98
2019-11-30 08:00:00 11.7 0 Calma 4 Sur 0 -- -- 98
2019-11-30 07:00:00 11.2 0 Calma 9 Sudoeste 0 -- -- 97
2019-11-30 06:00:00 10.9 2 Oeste 6 Oeste 0 -- -- 98
2019-11-30 05:00:00 11.4 0 Calma 4 Sudoeste 0 -- -- 97
2019-11-30 04:00:00 11.1 0 Calma 4 Nordeste 0 -- -- 96
2019-11-30 03:00:00 11.5 0 Calma 3 Nordeste 0 -- -- 97
2019-11-30 02:00:00 11.1 0 Calma 5 Este 0 -- -- 96
2019-11-30 01:00:00 11.1 3 Este 6 Este 0 -- -- 96
2019-11-30 00:00:00 11.4 4 Este 7 Este 0 -- -- 95
2019-11-29 23:00:00 11.6 3 Este 10 Sudeste 0 -- -- 94
2019-11-29 22:00:00 12.3 4 Sudeste 9 Este 0 -- -- 95
2019-11-29 21:00:00 11.7 5 Este 8 Sudeste 0 -- -- 94
2019-11-29 20:00:00 12.1 3 Sudeste 6 Sudeste 0 -- -- 92
2019-11-29 19:00:00 12.9 2 Este 6 Nordeste 0 -- -- 88
2019-11-29 18:00:00 14.9 0 Calma 5 Sudoeste 0 -- -- 85
2019-11-29 17:00:00 17.5 4 Sudoeste 11 Sudoeste 0 -- -- 78
2019-11-29 16:00:00 17.5 3 Sudeste 22 Sudoeste 0 -- -- 79
2019-11-29 15:00:00 18.7 14 Sudoeste 21 Sudoeste 0 -- -- 74
2019-11-29 14:00:00 19.9 5 Sudoeste 15 Sudoeste 0 -- -- 63
2019-11-29 13:00:00 18.4 9 Sudoeste 17 Sudoeste 0 -- -- 76
2019-11-29 12:00:00 16.9 11 Sudoeste 25 Sur 0 -- -- 80
2019-11-29 11:00:00 16.5 14 Sudoeste 21 Sudoeste 0 -- -- 78
2019-11-29 10:00:00 15.4 14 Sudoeste 22 Sudoeste 0 -- -- 79
2019-11-29 09:00:00 14.1 9 Sudoeste 15 Sur 0 -- -- 88
2019-11-29 08:00:00 13.7 6 Oeste 19 Sur 0 -- -- 89
2019-11-29 07:00:00 13.7 12 Sudoeste 25 Sudoeste 0 -- -- 88
2019-11-29 06:00:00 13.8 14 Sudoeste 28 Sudoeste 0 -- -- 86
2019-11-29 05:00:00 13.9 18 Sudoeste 34 Sur 0 -- -- 84
2019-11-29 04:00:00 13.7 19 Sudoeste 31 Sur 0 -- -- 82
2019-11-29 03:00:00 14 21 Sudoeste 33 Sudoeste 0 -- -- 81
2019-11-29 02:00:00 14 21 Sudoeste 37 Sudoeste 0 -- -- 81
2019-11-29 01:00:00 13.8 19 Sudoeste 31 Sudoeste 0 -- -- 87
2019-11-29 00:00:00 13.4 18 Sudoeste 28 Sudoeste 0 -- -- 90
2019-11-28 23:00:00 12.4 5 Oeste 27 Sudoeste 0 -- -- 91
2019-11-28 22:00:00 14 12 Sudoeste 27 Sudoeste 0 -- -- 86
2019-11-28 21:00:00 13.9 17 Sudoeste 27 Sudoeste 0 -- -- 85
2019-11-28 20:00:00 14.4 18 Sudoeste 33 Sudoeste 0 -- -- 80
2019-11-28 19:00:00 14.3 17 Sudoeste 29 Sudoeste 0 -- -- 84
2019-11-28 18:00:00 14.5 16 Sudoeste 29 Sudoeste 0 -- -- 83
2019-11-28 17:00:00 15.3 16 Sudoeste 31 Sudoeste 0 -- -- 76
2019-11-28 16:00:00 17 19 Sudoeste 34 Sudoeste 0 -- -- 70
2019-11-28 15:00:00 17.9 20 Sudoeste 32 Sudoeste 0 -- -- 65
2019-11-28 14:00:00 19 23 Sudoeste 33 Sudoeste 0 -- -- 63
2019-11-28 13:00:00 19.5 17 Sudoeste 27 Sudoeste 0 -- -- 59
2019-11-28 12:00:00 19.1 14 Oeste 22 Oeste 0 -- -- 53
2019-11-28 11:00:00 17.9 13 Oeste 24 Oeste 0 -- -- 64
2019-11-28 10:00:00 15.7 12 Oeste 22 Sudoeste 0 -- -- 73
2019-11-28 09:00:00 13.2 15 Sudoeste 24 Sudoeste 0 -- -- 85
2019-11-28 08:00:00 12.6 10 Oeste 25 Sudoeste 0 -- -- 86
2019-11-28 07:00:00 12.7 12 Sudoeste 19 Sudoeste 0 -- -- 75
2019-11-28 06:00:00 11.1 8 Sudoeste 13 Sudoeste 0 -- -- 86
2019-11-28 05:00:00 12 5 Sudoeste 11 Sudoeste 0 -- -- 85
2019-11-28 04:00:00 12.7 6 Sudoeste 23 Sudoeste 0 -- -- 85
2019-11-28 03:00:00 12.8 14 Sudoeste 19 Sudoeste 0 -- -- 86
2019-11-28 02:00:00 13.4 12 Sudoeste 20 Sudoeste 0 -- -- 80
2019-11-28 01:00:00 13.9 14 Sudoeste 26 Sudoeste 0 -- -- 78
2019-11-28 00:00:00 14.5 16 Sudoeste 26 Sudoeste 0 -- -- 78
2019-11-27 23:00:00 14.5 13 Sudoeste 24 Oeste 0 -- -- 78
2019-11-27 22:00:00 14.6 18 Sudoeste 34 Sudoeste 0 -- -- 85
2019-11-27 21:00:00 14.9 18 Sudoeste 28 Sudoeste 0 -- -- 82
2019-11-27 20:00:00 13.8 4 Oeste 10 Oeste 0 -- -- 87
2019-11-27 19:00:00 14.7 9 Sudoeste 16 Sudoeste 0 -- -- 83
2019-11-27 18:00:00 15.5 6 Sudoeste 23 Sudoeste 0 -- -- 80
2019-11-27 17:00:00 17.6 14 Sudoeste 22 Sudoeste 0 -- -- 73
2019-11-27 16:00:00 18.9 16 Sudoeste 27 Oeste 0 -- -- 64
2019-11-27 15:00:00 19.2 16 Oeste 25 Sudoeste 0 -- -- 62
2019-11-27 14:00:00 20 10 Sudoeste 30 Oeste 0 -- -- 64
2019-11-27 06:00:00 15.5 19 Sudoeste 40 Sudoeste 0 -- -- 93
2019-11-27 05:00:00 15.3 21 Sudoeste 39 Sudoeste 0 -- -- 93
2019-11-27 04:00:00 15.2 28 Sudoeste 39 Sudoeste 0 -- -- 93
2019-11-27 03:00:00 15.2 29 Sudoeste 55 Sudoeste 0 -- -- 92
2019-11-27 02:00:00 15.4 35 Sudoeste 53 Sudoeste 0 -- -- 92
2019-11-27 01:00:00 15.4 28 Sudoeste 49 Sudoeste 0 -- -- 93
2019-11-27 00:00:00 15.2 22 Sudoeste 41 Sudoeste 0 -- -- 93
2019-11-26 23:00:00 15.1 23 Sudoeste 40 Sudoeste 0 -- -- 93
2019-11-26 22:00:00 14.7 19 Sudoeste 32 Sudoeste 0 -- -- 94
2019-11-26 21:00:00 14.6 18 Sudoeste 33 Sudoeste 0 -- -- 92
2019-11-26 20:00:00 14.8 22 Sudoeste 35 Sudoeste 0 -- -- 92
2019-11-26 19:00:00 14.8 18 Sudoeste 28 Sudoeste 0 -- -- 89
2019-11-26 18:00:00 15.3 15 Sudoeste 30 Sudoeste 0 -- -- 89
2019-11-26 17:00:00 16.7 18 Sudoeste 31 Sudoeste 0 -- -- 78
2019-11-26 16:00:00 17.4 21 Sudoeste 33 Sudoeste 0 -- -- 69
2019-11-26 15:00:00 18.6 19 Sudoeste 28 Sudoeste 0 -- -- 67
2019-11-26 14:00:00 18.5 18 Sudoeste 28 Oeste 0 -- -- 70
2019-11-26 13:00:00 18 17 Sudoeste 26 Sudoeste 0 -- -- 77
2019-11-26 12:00:00 17.5 15 Sudoeste 22 Sudoeste 0 -- -- 80
2019-11-26 11:00:00 16.9 14 Sudoeste 22 Sudoeste 0 -- -- 83
2019-11-26 10:00:00 16 12 Sudoeste 19 Sudoeste 0 -- -- 86
2019-11-26 09:00:00 11.6 5 Sudoeste 12 Sudoeste 0 -- -- 99
2019-11-26 08:00:00 8.2 0 Calma 5 Sudoeste 0 -- -- 93
2019-11-26 07:00:00 9.3 0 Calma 5 Sudoeste 0 -- -- 94
2019-11-26 06:00:00 7.9 2 Sudeste 5 Este 0 -- -- 93
2019-11-26 05:00:00 8 0 Calma 4 Este 0 -- -- 92
2019-11-26 04:00:00 8.6 0 Calma 5 Sudoeste 0 -- -- 91
2019-11-26 03:00:00 8.5 0 Calma 5 Este 0 -- -- 92
2019-11-26 02:00:00 8.3 0 Calma 4 Este 0 -- -- 92
2019-11-26 01:00:00 9.1 0 Calma 5 Oeste 0 -- -- 90
2019-11-26 00:00:00 9 0 Calma 5 Nordeste 0 -- -- 89
2019-11-25 23:00:00 9.5 3 Nordeste 6 Nordeste 0 -- -- 88
2019-11-25 22:00:00 10.1 0 Calma 5 Este 0 -- -- 86
2019-11-25 21:00:00 11 2 Sudoeste 5 Sudoeste 0 -- -- 82
2019-11-25 20:00:00 12.5 3 Sudoeste 7 Sudoeste 0 -- -- 75
2019-11-25 19:00:00 14.1 4 Sudoeste 18 Norte 0 -- -- 70
2019-11-25 18:00:00 13.9 0 Calma 9 Sudeste 0 -- -- 73
2019-11-25 17:00:00 16.9 4 Este 10 Nordeste 0 -- -- 63
2019-11-25 16:00:00 19.1 8 Oeste 18 Oeste 0 -- -- 59
2019-11-25 15:00:00 19.2 9 Oeste 19 Oeste 0 -- -- 56
2019-11-25 14:00:00 18.9 14 Oeste 29 Sudoeste 0 -- -- 56
2019-11-25 13:00:00 18.5 15 Sudoeste 29 Sudoeste 0 -- -- 65
2019-11-25 12:00:00 17.3 18 Sudoeste 24 Sudoeste 0 -- -- 70
2019-11-25 11:00:00 16.1 12 Sudoeste 19 Sudoeste 0 -- -- 68
2019-11-25 10:00:00 14.2 8 Oeste 25 Sudoeste 0 -- -- 75
2019-11-25 09:00:00 12.5 12 Sudoeste 17 Sudoeste 0 -- -- 80
2019-11-25 08:00:00 8.8 4 Oeste 14 Sudoeste 0 -- -- 87
2019-11-25 07:00:00 11 11 Sudoeste 20 Sudoeste 0 -- -- 82
2019-11-25 06:00:00 7.6 0 Calma 7 Sudoeste 0 -- -- 86
2019-11-25 05:00:00 10.6 8 Sudoeste 14 Sudoeste 0 -- -- 78
2019-11-25 04:00:00 7.6 2 Noroeste 8 Sudoeste 0 -- -- 86
2019-11-25 03:00:00 8.7 6 Sudoeste 10 Oeste 0 -- -- 82
2019-11-25 02:00:00 8.4 3 Noroeste 9 Sudoeste 0 -- -- 83
2019-11-25 01:00:00 10.1 3 Sudoeste 17 Sudoeste 0 -- -- 77
2019-11-25 00:00:00 11 10 Sudoeste 22 Sudoeste 0 -- -- 76
2019-11-24 23:00:00 11 11 Sudoeste 19 Sudoeste 0 -- -- 77
2019-11-24 22:00:00 10.9 13 Sudoeste 19 Sudoeste 0 -- -- 78
2019-11-24 21:00:00 10 9 Oeste 17 Sudoeste 0 -- -- 81
2019-11-24 20:00:00 10.7 10 Sudoeste 17 Sudoeste 0 -- -- 80
2019-11-24 19:00:00 10.9 6 Oeste 14 Sudoeste 0.2 -- -- 76
2019-11-24 18:00:00 11.9 9 Sudoeste 15 Sudoeste 0 -- -- 73
2019-11-24 17:00:00 14.1 7 Oeste 21 Oeste 0 -- -- 65
2019-11-24 16:00:00 15.4 12 Oeste 27 Oeste 0 -- -- 58
2019-11-24 15:00:00 15.7 16 Oeste 29 Oeste 0 -- -- 57
2019-11-24 14:00:00 16.1 13 Noroeste 29 Noroeste 0 -- -- 57
2019-11-24 13:00:00 15.8 19 Oeste 32 Noroeste 0 -- -- 54
2019-11-24 12:00:00 15.4 18 Oeste 34 Noroeste 0 -- -- 56
2019-11-24 11:00:00 15 18 Oeste 36 Noroeste 0 -- -- 60
2019-11-24 10:00:00 13.7 14 Oeste 21 Oeste 0 -- -- 65
2019-11-24 09:00:00 11.2 6 Oeste 14 Sudoeste 0 -- -- 75
2019-11-24 08:00:00 9.4 5 Sudoeste 14 Sudoeste 0 -- -- 79
2019-11-24 07:00:00 10.3 9 Sudoeste 15 Sudoeste 0 -- -- 74
2019-11-24 06:00:00 10.3 8 Sudoeste 12 Sudoeste 0 -- -- 75
2019-11-24 05:00:00 11.4 9 Oeste 17 Oeste 0 -- -- 71
2019-11-24 04:00:00 11.1 7 Oeste 15 Sudoeste 0 -- -- 72
2019-11-24 03:00:00 11.5 12 Sudoeste 18 Sudoeste 0 -- -- 72
2019-11-24 02:00:00 12.2 8 Oeste 17 Sudoeste 0 -- -- 71
2019-11-24 01:00:00 12.4 12 Sudoeste 20 Sudoeste 0 -- -- 68
2019-11-24 00:00:00 12.7 14 Oeste 24 Oeste 0 -- -- 66
2019-11-23 23:00:00 12.8 12 Oeste 23 Noroeste 0 -- -- 65
2019-11-23 22:00:00 13.1 9 Oeste 23 Oeste 0 -- -- 64
2019-11-23 21:00:00 13.2 9 Oeste 21 Oeste 0 -- -- 63
2019-11-23 20:00:00 13.1 11 Oeste 33 Oeste 0 -- -- 62
2019-11-23 19:00:00 12.9 15 Oeste 32 Oeste 0 -- -- 68
2019-11-23 18:00:00 12.1 15 Oeste 39 Oeste 0 -- -- 76
2019-11-23 17:00:00 12.6 18 Oeste 33 Oeste 0 -- -- 72
2019-11-23 16:00:00 14 18 Oeste 37 Sudoeste 0 -- -- 69
2019-11-23 15:00:00 13.1 16 Sudoeste 25 Sudoeste 0 -- -- 90
2019-11-23 14:00:00 10.6 3 Sudoeste 48 Oeste 4.8 -- -- 98
2019-11-23 13:00:00 15.2 13 Oeste 32 Sudoeste 0 -- -- 69
2019-11-23 12:00:00 15 22 Oeste 49 Sudoeste 0 -- -- 68
2019-11-23 11:00:00 15 28 Sudoeste 48 Sudoeste 0 -- -- 64
2019-11-23 10:00:00 15.3 21 Sudoeste 38 Sudoeste 0 -- -- 71
2019-11-23 09:00:00 14.7 22 Sudoeste 41 Sudoeste 0 -- -- 75
2019-11-23 08:00:00 14.8 23 Sudoeste 40 Sudoeste 0 -- -- 85
2019-11-23 07:00:00 14.6 15 Sudoeste 28 Sudoeste 0 -- -- 88
2019-11-23 06:00:00 14.7 19 Sudoeste 33 Sudoeste 0 -- -- 86
2019-11-23 05:00:00 15.6 21 Sudoeste 45 Sudoeste 0 -- -- 92
2019-11-23 04:00:00 16.1 31 Sudoeste 52 Sudoeste 0 -- -- 92
2019-11-23 03:00:00 16.1 27 Sudoeste 58 Sudoeste 0.8 -- -- 93
2019-11-23 02:00:00 15.5 21 Sudoeste 44 Sur 1.2 -- -- 93
2019-11-23 01:00:00 14.9 21 Sudoeste 42 Sudoeste 1.4 -- -- 93
2019-11-23 00:00:00 14.9 24 Sur 55 Sur 1.6 -- -- 92
2019-11-22 23:00:00 14.6 20 Sur 53 Sur 3.2 -- -- 92
2019-11-22 22:00:00 14.6 21 Sur 37 Sur 3.8 -- -- 90
2019-11-22 21:00:00 14.9 13 Sur 32 Sur 1.2 -- -- 90
2019-11-22 20:00:00 15.5 19 Sur 39 Sur 0 -- -- 83
2019-11-22 19:00:00 15.3 16 Sur 44 Sur 0 -- -- 87
2019-11-22 18:00:00 15.5 13 Sur 32 Sur 0 -- -- 86
2019-11-22 17:00:00 15.9 13 Sur 31 Sur 0 -- -- 85
2019-11-22 16:00:00 15.9 19 Sudoeste 35 Sudoeste 0 -- -- 86
2019-11-22 15:00:00 16 19 Sudoeste 32 Sur 0 -- -- 89
2019-11-22 14:00:00 15.6 18 Sudoeste 38 Sudoeste 0.8 -- -- 91
2019-11-22 13:00:00 16 23 Sudoeste 39 Sudoeste 0.6 -- -- 88
2019-11-22 12:00:00 15 13 Sur 37 Sudoeste 1.8 -- -- 89
2019-11-22 11:00:00 15.2 6 Sudoeste 18 Sudoeste 1.2 -- -- 93
2019-11-22 10:00:00 14 10 Sudoeste 18 Sur 0 -- -- 93
2019-11-22 09:00:00 12.8 3 Este 9 Sur 2.2 -- -- 95
2019-11-22 08:00:00 12.5 5 Sur 14 Sudeste 1 -- -- 95
2019-11-22 07:00:00 12 4 Este 9 Este 0 -- -- 95
2019-11-22 06:00:00 12.5 5 Este 9 Este 2 -- -- 95
2019-11-22 05:00:00 12.3 3 Sudeste 9 Este 1 -- -- 95
2019-11-22 04:00:00 12.5 3 Este 10 Sur 0.2 -- -- 93
2019-11-22 03:00:00 10.8 0 Calma 5 Sur 0 -- -- 92
2019-11-22 02:00:00 10.9 0 Calma 5 Sur 0 -- -- 88
2019-11-22 01:00:00 12.8 2 Sudoeste 13 Sur 0 -- -- 86
2019-11-22 00:00:00 12.7 4 Sur 13 Sur 0 -- -- 86
2019-11-21 23:00:00 10.2 3 Sur 7 Sur 0 -- -- 89
2019-11-21 22:00:00 10.2 0 Calma 5 Nordeste 0 -- -- 86
2019-11-21 21:00:00 11.4 2 Oeste 11 Sudoeste 0 -- -- 81
2019-11-21 20:00:00 12.1 7 Sudoeste 17 Sudoeste 0 -- -- 78
2019-11-21 19:00:00 12.6 9 Sudoeste 17 Sudoeste 0 -- -- 78
2019-11-21 18:00:00 12.1 6 Sudoeste 12 Sudoeste 0 -- -- 79
2019-11-21 17:00:00 13.4 10 Oeste 27 Sudoeste 0 -- -- 74
2019-11-21 16:00:00 14 19 Sudoeste 34 Sudoeste 0 -- -- 71
2019-11-21 15:00:00 14.9 19 Sudoeste 36 Oeste 0 -- -- 66
2019-11-21 14:00:00 15.4 19 Oeste 39 Sudoeste 0 -- -- 67
2019-11-21 13:00:00 15.4 19 Sudoeste 37 Sudoeste 0 -- -- 68
2019-11-21 12:00:00 14.9 17 Sudoeste 31 Sudoeste 0 -- -- 71
2019-11-21 11:00:00 14.6 12 Sudoeste 18 Sudoeste 0 -- -- 77
2019-11-21 10:00:00 13.3 9 Sudoeste 13 Sudoeste 0 -- -- 80
2019-11-21 09:00:00 9.3 0 Calma 5 Sudoeste 0 -- -- 97
2019-11-21 08:00:00 8.3 0 Calma 5 Nordeste 0 -- -- 95
2019-11-21 07:00:00 9.2 0 Calma 4 Oeste 0 -- -- 93
2019-11-21 06:00:00 10.3 4 Sudoeste 16 Sudoeste 0 -- -- 94
2019-11-21 05:00:00 10.3 10 Sudoeste 29 Sur 0.4 -- -- 92
2019-11-21 04:00:00 10 5 Sudoeste 24 Sudoeste 0.2 -- -- 93
2019-11-21 03:00:00 8.7 0 Calma 4 Sur 0 -- -- 93
2019-11-21 02:00:00 9.2 4 Oeste 10 Sudoeste 0 -- -- 90
2019-11-21 01:00:00 8.7 0 Calma 3 Sur 0 -- -- 91
2019-11-21 00:00:00 10.2 0 Calma 11 Sur 0 -- -- 82
2019-11-20 23:00:00 10.3 8 Sudoeste 11 Sur 0 -- -- 89
2019-11-20 22:00:00 11.2 2 Sudoeste 11 Sur 0 -- -- 82
2019-11-20 21:00:00 9.9 2 Sur 6 Nordeste 0 -- -- 87
2019-11-20 20:00:00 11.4 2 Nordeste 19 Sudeste 0 -- -- 82
2019-11-20 19:00:00 12.3 5 Sudeste 15 Este 0 -- -- 82
2019-11-20 18:00:00 12.2 5 Sudeste 14 Sudeste 0 -- -- 81
2019-11-20 17:00:00 13 5 Sur 15 Sudoeste 0 -- -- 73
2019-11-20 16:00:00 13.1 3 Sudeste 11 Sur 0 -- -- 76
2019-11-20 15:00:00 13.4 8 Sur 15 Sudeste 0 -- -- 74
2019-11-20 14:00:00 14.1 5 Sudeste 17 Sudeste 0 -- -- 69
2019-11-20 13:00:00 13.4 7 Sur 15 Sur 0 -- -- 66
2019-11-20 12:00:00 12.7 3 Sudeste 8 Sur 0 -- -- 74
2019-11-20 11:00:00 10.6 3 Nordeste 8 Este 0 -- -- 82
2019-11-20 10:00:00 8.7 4 Este 6 Este 0 -- -- 93
2019-11-20 09:00:00 5.5 0 Calma -- -- 0 -- -- 97
2019-11-20 08:00:00 3.4 0 Calma 2 Noroeste 0 -- -- 95
2019-11-20 07:00:00 2.8 0 Calma 3 Nordeste 0 -- -- 95
2019-11-20 06:00:00 2.8 0 Calma 3 Norte 0 -- -- 94
2019-11-20 05:00:00 2.7 0 Calma 3 Este 0 -- -- 93
2019-11-20 04:00:00 3.1 0 Calma 2 Noroeste 0 -- -- 94
2019-11-20 03:00:00 3.2 0 Calma 5 Este 0 -- -- 92
2019-11-20 02:00:00 3.2 0 Calma 2 Oeste 0 -- -- 92
2019-11-20 01:00:00 3.7 0 Calma 2 Sudoeste 0 -- -- 92
2019-11-20 00:00:00 3.8 0 Calma 0 Calma 0 -- -- 90
2019-11-19 23:00:00 4.6 0 Calma 4 Sudoeste 0 -- -- 88
2019-11-19 22:00:00 4.7 0 Calma -- -- 0 -- -- 86
2019-11-19 21:00:00 5.7 0 Calma 4 Sur 0 -- -- 82
2019-11-19 20:00:00 6.7 3 Sur 5 Sur 0 -- -- 80
2019-11-19 19:00:00 8.8 0 Calma 11 Sudoeste 0 -- -- 74
2019-11-19 18:00:00 10.8 6 Sudoeste 17 Sudoeste 0 -- -- 70
2019-11-19 17:00:00 13.5 8 Sur 14 Sudoeste 0 -- -- 66
2019-11-19 16:00:00 13.6 6 Sudoeste 15 Sudoeste 0 -- -- 65
2019-11-19 15:00:00 13 10 Sudoeste 18 Sudoeste 0 -- -- 65
2019-11-19 14:00:00 12.6 13 Sudoeste 26 Sudoeste 0 -- -- 67
2019-11-19 13:00:00 14.5 14 Sudoeste 22 Oeste 0 -- -- 56
2019-11-19 12:00:00 13.9 12 Sudoeste 22 Oeste 0 -- -- 62
2019-11-19 11:00:00 13.2 11 Sudoeste 18 Sudoeste 0 -- -- 66
2019-11-19 10:00:00 11 3 Sudoeste 6 Sur 0 -- -- 78
2019-11-19 09:00:00 6.3 0 Calma 5 Nordeste 0 -- -- 94
2019-11-19 08:00:00 4.7 0 Calma 3 Noroeste 0 -- -- 93
2019-11-19 07:00:00 5.1 0 Calma 3 Nordeste 0 -- -- 90
2019-11-19 06:00:00 6.6 2 Sur 9 Sur 0 -- -- 90
2019-11-19 05:00:00 5.4 2 Sur 4 Sudoeste 0 -- -- 91
2019-11-19 04:00:00 6.2 0 Calma 4 Sur 0 -- -- 89
2019-11-19 03:00:00 7.8 0 Calma 10 Oeste 0 -- -- 85
2019-11-19 02:00:00 9.5 5 Oeste 15 Oeste 0 -- -- 80
2019-11-19 01:00:00 10.9 10 Noroeste 21 Norte 0 -- -- 70
2019-11-19 00:00:00 11.1 10 Norte 27 Norte 0 -- -- 67
2019-11-18 23:00:00 10.5 9 Norte 26 Norte 0 -- -- 70
2019-11-18 22:00:00 10.4 8 Norte 22 Norte 0 -- -- 70
2019-11-18 21:00:00 10.8 9 Norte 28 Norte 0 -- -- 71
2019-11-18 20:00:00 11.1 12 Norte 32 Norte 0 -- -- 71
2019-11-18 19:00:00 11.6 14 Norte 36 Norte 0 -- -- 73
2019-11-18 18:00:00 11.6 14 Norte 37 Norte 0 -- -- 74
2019-11-18 17:00:00 12.1 12 Norte 35 Norte 0 -- -- 72
2019-11-18 16:00:00 12.1 12 Norte 30 Norte 0 -- -- 76
2019-11-18 15:00:00 13.2 16 Norte 37 Norte 0 -- -- 75
2019-11-18 14:00:00 13.1 10 Norte 32 Norte 0 -- -- 82
2019-11-18 13:00:00 11.7 5 Norte 30 Noroeste 0 -- -- 78
2019-11-18 12:00:00 13.4 6 Norte 14 Noroeste 0 -- -- 79
2019-11-18 11:00:00 12.7 4 Norte 19 Norte 0 -- -- 81
2019-11-18 10:00:00 11.4 4 Norte 12 Norte 0 -- -- 91
2019-11-18 09:00:00 10.9 3 Oeste 14 Oeste 0 -- -- 94
2019-11-18 08:00:00 10.5 7 Noroeste 11 Noroeste 0 -- -- 94
2019-11-18 07:00:00 10.8 3 Noroeste 13 Sudoeste 0 -- -- 93
2019-11-18 06:00:00 11.5 7 Sudoeste 16 Sudoeste 0 -- -- 92
2019-11-18 05:00:00 11.5 5 Sudoeste 14 Sudoeste 0 -- -- 91
2019-11-18 04:00:00 11.7 8 Sudoeste 15 Sudoeste 0 -- -- 90
2019-11-18 03:00:00 12.3 10 Sudoeste 17 Sudoeste 0 -- -- 86
2019-11-18 02:00:00 12.8 9 Sudoeste 14 Sudoeste 0 -- -- 81
2019-11-18 01:00:00 13.2 9 Sudoeste 20 Sudoeste 0 -- -- 77
2019-11-18 00:00:00 13.7 15 Sudoeste 23 Sudoeste 0 -- -- 70
2019-11-17 23:00:00 12.9 9 Sudoeste 22 Sudoeste 0 -- -- 69
2019-11-17 22:00:00 12.2 6 Sudoeste 13 Sudoeste 0 -- -- 71
2019-11-17 21:00:00 12.2 9 Sudoeste 29 Sudoeste 0 -- -- 68
2019-11-17 20:00:00 12.4 16 Sudoeste 27 Sur 0 -- -- 65
2019-11-17 19:00:00 11.7 6 Sur 18 Sudoeste 0 -- -- 70
2019-11-17 18:00:00 11.4 9 Sudoeste 24 Sudoeste 0 -- -- 71
2019-11-17 17:00:00 13.5 13 Sudoeste 31 Sudoeste 0 -- -- 58
2019-11-17 16:00:00 14.2 20 Oeste 37 Sudoeste 0 -- -- 56
2019-11-17 15:00:00 14.4 23 Sudoeste 38 Sudoeste 0 -- -- 55
2019-11-17 14:00:00 13.8 22 Sudoeste 39 Sudoeste 0 -- -- 61
2019-11-17 13:00:00 14.3 26 Sudoeste 42 Sudoeste 0 -- -- 52
2019-11-17 12:00:00 14.5 19 Oeste 37 Oeste 0 -- -- 52
2019-11-17 11:00:00 14.2 19 Oeste 31 Sudoeste 0 -- -- 52
2019-11-17 10:00:00 13.1 13 Sudoeste 24 Sudoeste 0 -- -- 61
2019-11-17 09:00:00 10.7 13 Sudoeste 18 Sudoeste 0 -- -- 64
2019-11-17 08:00:00 7.2 0 Calma 10 Sudoeste 0 -- -- 75
2019-11-17 07:00:00 8.8 6 Sudoeste 19 Oeste 0 -- -- 69
2019-11-17 06:00:00 9.8 8 Oeste 18 Oeste 0 -- -- 64
2019-11-17 05:00:00 9.9 8 Oeste 17 Oeste 0 -- -- 64
2019-11-17 04:00:00 9.6 8 Oeste 20 Sudoeste 0 -- -- 69
2019-11-17 03:00:00 9.9 12 Oeste 21 Oeste 0 -- -- 68
2019-11-17 02:00:00 9.2 10 Oeste 27 Sudoeste 0 -- -- 79
2019-11-17 01:00:00 8.6 8 Sudoeste 18 Oeste 0 -- -- 74
2019-11-17 00:00:00 8.3 8 Oeste 15 Oeste 0 -- -- 79
2019-11-16 23:00:00 7.5 8 Sudoeste 13 Oeste 0 -- -- 87
2019-11-16 22:00:00 7.8 9 Sudoeste 15 Sudoeste 0 -- -- 88
2019-11-16 21:00:00 8.3 5 Oeste 14 Oeste 0 -- -- 87
2019-11-16 20:00:00 8.5 9 Oeste 12 Sudoeste 0 -- -- 88
2019-11-16 19:00:00 9.5 3 Noroeste 12 Noroeste 0 -- -- 85
2019-11-16 18:00:00 9.7 8 Noroeste 15 Noroeste 0 -- -- 85
2019-11-16 17:00:00 9.8 7 Noroeste 22 Noroeste 0.2 -- -- 86
2019-11-16 16:00:00 10.3 7 Noroeste 17 Noroeste 0 -- -- 79
2019-11-16 15:00:00 10.2 12 Noroeste 28 Noroeste 0 -- -- 82
2019-11-16 14:00:00 12 10 Noroeste 19 Noroeste 0 -- -- 70
2019-11-16 13:00:00 11.5 2 Sudoeste 8 Este 0 -- -- 69
2019-11-16 12:00:00 11.5 2 Nordeste 5 Nordeste 0 -- -- 76
2019-11-16 11:00:00 10.1 0 Calma 5 Sudoeste 0 -- -- 80
2019-11-16 10:00:00 9.3 3 Oeste 6 Oeste 0 -- -- 81
2019-11-16 09:00:00 8.1 0 Calma 6 Este 0 -- -- 83
2019-11-16 08:00:00 6.6 0 Calma 4 Nordeste 0 -- -- 86
2019-11-16 07:00:00 6.6 5 Este 14 Este 0 -- -- 84
2019-11-16 06:00:00 5.9 2 Sudoeste 6 Sudeste 0 -- -- 86
2019-11-16 05:00:00 6.5 2 Sudoeste 12 Oeste 0 -- -- 83
2019-11-16 04:00:00 7.3 6 Oeste 14 Oeste 0 -- -- 79
2019-11-16 03:00:00 5.4 5 Sudoeste 9 Oeste 0 -- -- 85
2019-11-16 02:00:00 5.8 0 Calma 10 Sudoeste 0 -- -- 80
2019-11-16 01:00:00 10.5 10 Sudoeste 19 Sur 0 -- -- 59
2019-11-16 00:00:00 5.5 0 Calma 8 Norte 0 -- -- 86
2019-11-15 23:00:00 7.3 6 Sudoeste 11 Sur 0 -- -- 80
2019-11-15 22:00:00 6 2 Sudoeste 6 Sur 0 -- -- 85
2019-11-15 21:00:00 7.7 0 Calma 9 Sur 0 -- -- 78
2019-11-15 20:00:00 9 6 Sudoeste 14 Sudoeste 0 -- -- 74
2019-11-15 19:00:00 8.6 8 Sudoeste 14 Sudoeste 0 -- -- 77
2019-11-15 18:00:00 10.1 11 Sudoeste 23 Sudoeste 0 -- -- 70
2019-11-15 17:00:00 12.3 12 Sudoeste 26 Sudoeste 0 -- -- 59
2019-11-15 16:00:00 13.5 16 Sudoeste 28 Sudoeste 0 -- -- 55
2019-11-15 15:00:00 13.3 9 Sudoeste 24 Sudoeste 0 -- -- 55
2019-11-15 14:00:00 14.4 12 Oeste 26 Sudoeste 0 -- -- 51
2019-11-15 13:00:00 14.3 12 Oeste 29 Oeste 0 -- -- 54
2019-11-15 12:00:00 12.8 12 Oeste 26 Oeste 0 -- -- 58
2019-11-15 11:00:00 11.6 18 Sudoeste 27 Sudoeste 0 -- -- 71
2019-11-15 10:00:00 10.9 14 Sudoeste 21 Oeste 0 -- -- 77
2019-11-15 09:00:00 10.9 10 Oeste 33 Sudoeste 0 -- -- 76
2019-11-15 08:00:00 10.9 23 Sudoeste 34 Sudoeste 0 -- -- 70
2019-11-15 07:00:00 10.6 21 Sudoeste 36 Sudoeste 0 -- -- 70
2019-11-15 06:00:00 10.5 19 Sudoeste 35 Sudoeste 0 -- -- 71
2019-11-15 05:00:00 9.1 7 Sur 12 Sudoeste 0 -- -- 77
2019-11-15 04:00:00 9.6 4 Oeste 15 Oeste 0 -- -- 78
2019-11-15 03:00:00 9.9 6 Sur 17 Sur 0 -- -- 74
2019-11-15 02:00:00 6.1 3 Sudeste 5 Este 0 -- -- 94
2019-11-15 01:00:00 5.6 0 Calma 3 Sudeste 0 -- -- 93
2019-11-15 00:00:00 6.7 0 Calma 3 Sur 0 -- -- 91